Regional Weather Roundup
Issued by NWS

Home | Current Version | Previous Version | Text Only | Print | Product List | Glossary On
Versions: 1 2 3 4 5 6 7 8 9 10 11 12 13 14 15 16 17 18 19 20 21 22 23 24 25 26 27 28 29 30 31 32 33 34 35 36 37 38 39 40 41 42 43 44 45 46 47 48 49 50
000
ASUS43 KBIS 240102
RWRND

NORTH DAKOTA REGIONAL WEATHER ROUNDUP
NATIONAL WEATHER SERVICE BISMARCK ND
700 PM CST THU NOV 23 2017

NOTE: "FAIR" INDICATES FEW OR NO CLOUDS BELOW 12,000 FEET WITH NO
SIGNIFICANT WEATHER AND/OR OBSTRUCTIONS TO VISIBILITY.


NDZ001>003-009>011-017-240200-
NORTHWEST NORTH DAKOTA

CITY           SKY/WX    TMP DP  RH WIND       PRES   REMARKS
WILLISTON      CLEAR     54  36  50 SW9       29.43F
MINOT          CLEAR     57  37  47 SW16G24   29.37F
MINOT AFB      CLEAR     56  38  50 W17       29.35F
$$

NDZ018>021-031>035-040>046-240200-
SOUTHWEST NORTH DAKOTA

CITY           SKY/WX    TMP DP  RH WIND       PRES   REMARKS
BISMARCK       CLEAR     56  37  49 W7        29.51F
DICKINSON      CLEAR     56  36  47 SW16      29.52F
GARRISON         N/A     50  38  63 W14       29.44F
HETTINGER ARPT CLEAR     56  36  47 SW13      29.60F
$$

NDZ004>008-012>016-024-026-027-054-240200-
NORTHEAST NORTH DAKOTA

CITY           SKY/WX    TMP DP  RH WIND       PRES   REMARKS
GRAND FORKS    PTCLDY    38  33  82 S16       29.41F
GRND FRKS AFB  CLEAR     38  34  84 S10       29.40F
DEVILS LAKE    CLEAR     50  38  63 SW20      29.38F
$$

NDZ022-023-025-028>030-036>039-047>053-240200-
SOUTHEAST NORTH DAKOTA

CITY           SKY/WX    TMP DP  RH WIND       PRES   REMARKS
FARGO          CLEAR     43  31  62 S10       29.50F
JAMESTOWN      CLOUDY    51  39  63 SW12      29.46F
$$




USA.gov is the U.S. government's official web portal to all federal, state and local government web resources and services.